Wiscasset, ME

3:50 PM EDT on March 27, 2017 (GMT -0400)
Wiscasset

Weather History for KIWI - November, 2012

Change the Weather History Date:

Sunday, November 18, 2012

  Actual Average Record
Temperature  
Mean Temperature 32 °F -  
Max Temperature 44 °F 43 °F 62 °F (2013)
Min Temperature 19 °F 27 °F 14 °F (1997)
Degree Days  
Heating Degree Days 34    
Moisture  
Dew Point 17 °F    
Average Humidity 65    
Maximum Humidity 85    
Minimum Humidity 30    
Precipitation  
Precipitation 0.00 in - - ()
Sea Level Pressure  
Sea Level Pressure 30.72 in    
Wind  
Wind Speed 1 mph (ENE)    
Max Wind Speed 6 mph    
Max Gust Speed -    
Visibility 10 miles    
Events      
Averages and records for this station are not official NWS values.
T = Trace of Precipitation, MM = Missing Value Source: NWS Daily Summary

Daily Weather History Graph

Daily Weather History Graph

Search for Another Location

Airport or City:

Trip Planner

Search our weather history database for the weather conditions in past years. The results will help you decide how hot, cold, wet, or windy it might be!

Date:

Astronomy

Nov. 18, 2012 Rise Set
Actual Time 6:38 AM EST 4:09 PM EST
Civil Twilight 6:06 AM EST 4:41 PM EST
Nautical Twilight 5:31 AM EST 5:16 PM EST
Astronomical Twilight 4:57 AM EST 5:50 PM EST
Moon 11:00 AM EST (11/18) 9:28 PM EST (11/18)
Length of Visible Light 10h 34m
Length of Day
9h 31m
Waxing Crescent, 30% of the Moon is Illuminated
Nov 18
Waxing Crescent
Nov 20
First Quarter
Nov 28
Full
Dec 6
Last Quarter
Dec 13
New

Hourly Weather History & Observations

Time (EST) Temp. Windchill Dew Point Humidity Pressure Visibility Wind Dir Wind Speed Gust Speed Precip Events Conditions
12:53 AM 23.0 °F - 19.0 °F 85% 30.71 in 10.0 mi Calm Calm - N/A   Clear
1:53 AM 21.9 °F - 18.0 °F 85% 30.73 in 10.0 mi Calm Calm - N/A   Clear
2:53 AM 21.9 °F - 18.0 °F 85% 30.72 in 10.0 mi Calm Calm - N/A   Clear
3:53 AM 21.0 °F - 17.1 °F 85% 30.72 in 10.0 mi Calm Calm - N/A   Clear
4:53 AM 21.0 °F - 16.0 °F 81% 30.72 in 10.0 mi Calm Calm - N/A   Clear
5:53 AM 19.9 °F - 16.0 °F 85% 30.73 in 10.0 mi Calm Calm - N/A   Clear
6:53 AM 19.9 °F - 15.1 °F 81% 30.75 in 10.0 mi Calm Calm - N/A   Clear
7:53 AM 25.0 °F - 21.0 °F 85% 30.77 in 10.0 mi Calm Calm - N/A   Clear
8:53 AM 34.0 °F - 21.9 °F 61% 30.78 in 10.0 mi Calm Calm - N/A   Clear
9:53 AM 37.9 °F - 21.0 °F 51% 30.77 in 10.0 mi Calm Calm - N/A   Clear
10:53 AM 39.9 °F 35.8 °F 12.0 °F 32% 30.76 in 10.0 mi East 5.8 mph - N/A   Clear
11:53 AM 43.0 °F 40.3 °F 12.9 °F 30% 30.73 in 10.0 mi NE 4.6 mph - N/A   Clear
12:53 PM 44.1 °F 42.5 °F 14.0 °F 30% 30.71 in 10.0 mi Variable 3.5 mph - N/A   Clear
1:53 PM 44.1 °F 41.5 °F 14.0 °F 30% 30.70 in 10.0 mi East 4.6 mph - N/A   Clear
2:53 PM 44.1 °F 41.5 °F 14.0 °F 30% 30.70 in 10.0 mi Variable 4.6 mph - N/A   Clear
3:53 PM 37.9 °F - 17.1 °F 43% 30.70 in 10.0 mi Calm Calm - N/A   Clear
4:53 PM 30.9 °F - 18.0 °F 59% 30.70 in 10.0 mi Calm Calm - N/A   Clear
5:53 PM 28.0 °F - 19.0 °F 69% 30.71 in 10.0 mi Calm Calm - N/A   Clear
6:53 PM 27.0 °F - 19.0 °F 72% 30.71 in 10.0 mi Calm Calm - N/A   Clear
7:53 PM 26.1 °F - 19.0 °F 75% 30.71 in 10.0 mi Calm Calm - N/A   Clear
8:53 PM 25.0 °F - 18.0 °F 75% 30.70 in 10.0 mi Calm Calm - N/A   Clear
9:53 PM 24.1 °F - 18.0 °F 77% 30.69 in 10.0 mi Calm Calm - N/A   Clear
10:53 PM 23.0 °F - 18.0 °F 81% 30.69 in 10.0 mi Calm Calm - N/A   Clear
11:53 PM 21.9 °F - 18.0 °F 85% 30.68 in 10.0 mi Calm Calm - N/A   Clear